| time (UTC) | temp F | wind direction | speed MPH | gust MPH | rain 1hr in | rain 24hr in | rain mn in | humidity % | barometer mb |
| 20260906085254 | 53 | 105 | 0.0 | 0.0 | 0.00 | 0.04 | 0.00 | 95 | 1015.4 |
| 20260906084747 | 53 | 105 | 0.0 | 0.0 | 0.00 | 0.04 | 0.00 | 95 | 1015.4 |
| 20260906084243 | 53 | 105 | 0.0 | 0.0 | 0.00 | 0.04 | 0.00 | 95 | 1015.3 |
| 20260906083739 | 53 | 105 | 0.0 | 0.0 | 0.00 | 0.04 | 0.00 | 95 | 1015.3 |
| 20260906083232 | 53 | 105 | 0.0 | 0.0 | 0.00 | 0.04 | 0.00 | 95 | 1015.3 |
| 20260906082736 | 53 | 105 | 0.0 | 0.0 | 0.00 | 0.04 | 0.00 | 95 | 1015.1 |
| 20260906082215 | 53 | 105 | 0.0 | 0.0 | 0.00 | 0.04 | 0.00 | 95 | 1015.1 |
| 20260906081707 | 54 | 105 | 0.0 | 0.0 | 0.00 | 0.04 | 0.00 | 95 | 1015.1 |
| 20260906081208 | 54 | 106 | 0.0 | 0.0 | 0.00 | 0.04 | 0.00 | 95 | 1015.2 |
| 20260906080709 | 54 | 106 | 0.0 | 0.0 | 0.00 | 0.04 | 0.00 | 95 | 1015.2 |
| 20260906080204 | 54 | 105 | 0.0 | 0.0 | 0.00 | 0.04 | 0.00 | 95 | 1015.2 |
| 20260906075700 | 54 | 105 | 0.0 | 0.0 | 0.00 | 0.04 | 0.00 | 95 | 1015.0 |
| 20260906075158 | 54 | 105 | 0.0 | 0.0 | 0.00 | 0.04 | 0.00 | 95 | 1015.0 |
| 20260906074701 | 54 | 105 | 0.0 | 0.0 | 0.00 | 0.04 | 0.00 | 95 | 1015.0 |
| 20260906074156 | 54 | 105 | 0.0 | 0.0 | 0.00 | 0.04 | 0.00 | 95 | 1015.2 |
| 20260906073648 | 55 | 106 | 0.0 | 0.0 | 0.00 | 0.04 | 0.00 | 95 | 1015.2 |
| 20260906073501 | 55 | 105 | 0.0 | 0.0 | 0.00 | 0.04 | 0.00 | 95 | 1015.3 |
| 20260906072648 | 55 | 105 | 0.0 | 0.0 | 0.00 | 0.04 | 0.00 | 95 | 1015.3 |
| 20260906072145 | 55 | 105 | 0.0 | 0.0 | 0.00 | 0.04 | 0.00 | 94 | 1015.3 |
| 20260906071635 | 55 | 106 | 0.0 | 0.0 | 0.00 | 0.04 | 0.00 | 94 | 1015.4 |
| 20260906071134 | 55 | 105 | 0.0 | 0.0 | 0.00 | 0.04 | 0.00 | 94 | 1015.3 |
| 20260906070942 | 55 | 106 | 0.0 | 0.0 | 0.00 | 0.04 | 0.00 | 94 | 1015.3 |
| 20260906070119 | 55 | 105 | 0.0 | 0.0 | 0.00 | 0.04 | 0.00 | 94 | 1015.3 |
| 20260906065925 | 55 | 106 | 0.0 | 0.0 | 0.00 | 0.04 | 0.00 | 94 | 1015.3 |
| 20260906065103 | 55 | 105 | 0.0 | 0.0 | 0.00 | 0.04 | 0.00 | 93 | 1015.3 |
| 20260906064604 | 55 | 105 | 0.0 | 0.0 | 0.00 | 0.04 | 0.00 | 93 | 1015.3 |
| 20260906064103 | 56 | 105 | 0.0 | 0.0 | 0.00 | 0.04 | 0.00 | 93 | 1015.5 |
| 20260906063601 | 56 | 105 | 0.0 | 0.0 | 0.00 | 0.04 | 0.00 | 94 | 1015.5 |
| 20260906063102 | 56 | 106 | 0.0 | 0.0 | 0.00 | 0.04 | 0.00 | 94 | 1015.5 |
| 20260906062603 | 56 | 105 | 0.0 | 0.0 | 0.00 | 0.04 | 0.00 | 93 | 1015.5 |
| 20260906062057 | 56 | 105 | 0.0 | 0.0 | 0.00 | 0.04 | 0.00 | 93 | 1015.6 |
| 20260906061553 | 56 | 105 | 0.0 | 0.0 | 0.00 | 0.04 | 0.00 | 93 | 1015.6 |
| 20260906061051 | 56 | 105 | 0.0 | 0.0 | 0.00 | 0.04 | 0.00 | 93 | 1015.5 |
| 20260906060552 | 57 | 106 | 0.0 | 0.0 | 0.00 | 0.04 | 0.00 | 93 | 1015.5 |
| 20260906060104 | 57 | 106 | 0.0 | 0.0 | 0.00 | 0.04 | 0.00 | 93 | 1015.5 |
| 20260906055603 | 57 | 106 | 0.0 | 0.0 | 0.00 | 0.04 | 0.00 | 93 | 1015.6 |
| 20260906055050 | 57 | 105 | 0.0 | 0.0 | 0.00 | 0.04 | 0.00 | 93 | 1015.6 |
| 20260906054531 | 57 | 105 | 0.0 | 0.0 | 0.00 | 0.04 | 0.00 | 93 | 1015.6 |
| 20260906054019 | 57 | 105 | 0.0 | 0.0 | 0.00 | 0.04 | 0.00 | 92 | 1015.5 |
| 20260906053818 | 58 | 106 | 0.0 | 0.0 | 0.00 | 0.04 | 0.00 | 92 | 1015.6 |
| 20260906053001 | 58 | 106 | 0.0 | 0.0 | 0.00 | 0.04 | 0.00 | 92 | 1015.7 |
| 20260906052500 | 58 | 106 | 0.0 | 0.0 | 0.00 | 0.04 | 0.00 | 92 | 1015.7 |
| 20260906052317 | 58 | 106 | 0.0 | 0.0 | 0.00 | 0.04 | 0.00 | 92 | 1015.7 |
| 20260906051456 | 58 | 105 | 0.0 | 0.0 | 0.00 | 0.04 | 0.00 | 92 | 1015.3 |
| 20260906050958 | 58 | 105 | 0.0 | 0.0 | 0.00 | 0.04 | 0.00 | 91 | 1015.3 |
| 20260906050452 | 59 | 106 | 0.0 | 0.0 | 0.00 | 0.04 | 0.00 | 91 | 1015.3 |
| 20260906045952 | 59 | 105 | 0.0 | 0.0 | 0.00 | 0.04 | 0.00 | 91 | 1015.4 |
| 20260906045449 | 59 | 106 | 0.0 | 0.0 | 0.00 | 0.04 | 0.00 | 90 | 1015.5 |
| 20260906044949 | 59 | 106 | 0.0 | 0.0 | 0.00 | 0.04 | 0.00 | 90 | 1015.5 |
| 20260906044449 | 59 | 105 | 0.0 | 0.0 | 0.00 | 0.04 | 0.00 | 89 | 1015.3 |
| 20260906043950 | 60 | 106 | 0.0 | 0.0 | 0.00 | 0.04 | 0.00 | 89 | 1015.3 |
| 20260906043448 | 60 | 105 | 0.0 | 0.0 | 0.00 | 0.04 | 0.00 | 89 | 1015.4 |
| 20260906042947 | 60 | 106 | 0.0 | 0.0 | 0.00 | 0.04 | 0.00 | 89 | 1015.3 |
| 20260906042443 | 60 | 105 | 0.0 | 0.0 | 0.00 | 0.04 | 0.00 | 88 | 1015.3 |
| 20260906042252 | 61 | 105 | 0.0 | 0.0 | 0.00 | 0.04 | 0.00 | 88 | 1015.3 |
| 20260906041420 | 61 | 105 | 0.0 | 0.0 | 0.00 | 0.04 | 0.00 | 87 | 1015.2 |
| 20260906040914 | 61 | 105 | 0.0 | 0.0 | 0.00 | 0.04 | 0.00 | 87 | 1015.2 |
| 20260906040410 | 62 | 105 | 0.0 | 0.0 | 0.00 | 0.04 | 0.00 | 86 | 1015.3 |
| 20260906035905 | 62 | 106 | 0.0 | 0.0 | 0.00 | 0.04 | 0.04 | 86 | 1015.1 |
| 20260906035357 | 62 | 106 | 0.0 | 0.0 | 0.00 | 0.04 | 0.04 | 85 | 1015.1 |
| 20260906034849 | 63 | 105 | 0.0 | 0.0 | 0.00 | 0.04 | 0.04 | 85 | 1015.2 |
| 20260906034316 | 63 | 105 | 0.0 | 0.0 | 0.00 | 0.04 | 0.04 | 84 | 1015.2 |
| 20260906033816 | 63 | 105 | 0.0 | 2.0 | 0.00 | 0.04 | 0.04 | 84 | 1015.2 |
| 20260906033311 | 64 | 136 | 0.0 | 2.0 | 0.00 | 0.04 | 0.04 | 84 | 1015.2 |
| 20260906033118 | 64 | 136 | 0.0 | 2.0 | 0.00 | 0.04 | 0.04 | 83 | 1015.3 |
| 20260906032440 | 64 | 58 | 1.0 | 2.0 | 0.00 | 0.04 | 0.04 | 83 | 1015.3 |
| 20260906032411 | 64 | 136 | 1.0 | 2.0 | 0.00 | 0.04 | 0.04 | 83 | 1015.3 |
| 20260906031308 | 65 | 69 | 2.0 | 6.0 | 0.00 | 0.04 | 0.04 | 82 | 1015.4 |
| 20260906030852 | 65 | 69 | 2.0 | 6.0 | 0.00 | 0.04 | 0.04 | 82 | 1015.4 |
| 20260906025744 | 65 | 103 | 3.0 | 8.0 | 0.00 | 0.04 | 0.04 | 81 | 1015.2 |
| 20260906025241 | 65 | 355 | 3.0 | 8.0 | 0.00 | 0.04 | 0.04 | 81 | 1015.2 |
| 20260906024743 | 65 | 38 | 3.0 | 8.0 | 0.00 | 0.04 | 0.04 | 81 | 1015.2 |
| 20260906024242 | 66 | 134 | 2.0 | 6.0 | 0.00 | 0.04 | 0.04 | 81 | 1015.1 |
| 20260906023733 | 66 | 123 | 2.0 | 5.0 | 0.00 | 0.04 | 0.04 | 81 | 1015.1 |
| 20260906023551 | 66 | 92 | 2.0 | 5.0 | 0.00 | 0.04 | 0.04 | 81 | 1015.1 |
| 20260906022725 | 66 | 117 | 2.0 | 5.0 | 0.00 | 0.04 | 0.04 | 81 | 1014.9 |
| 20260906022220 | 66 | 203 | 2.0 | 6.0 | 0.00 | 0.04 | 0.04 | 82 | 1014.9 |
| 20260906021710 | 67 | 98 | 2.0 | 6.0 | 0.00 | 0.04 | 0.04 | 82 | 1014.9 |
| 20260906021211 | 67 | 161 | 1.0 | 5.0 | 0.00 | 0.04 | 0.04 | 82 | 1014.9 |
| 20260906020710 | 67 | 109 | 1.0 | 5.0 | 0.00 | 0.04 | 0.04 | 82 | 1014.9 |
| 20260906020523 | 67 | 119 | 2.0 | 7.0 | 0.00 | 0.04 | 0.04 | 82 | 1015.0 |
| 20260906015704 | 67 | 147 | 2.0 | 7.0 | 0.00 | 0.04 | 0.04 | 82 | 1014.6 |
| 20260906015202 | 67 | 137 | 2.0 | 5.0 | 0.00 | 0.04 | 0.04 | 83 | 1014.6 |
| 20260906014700 | 67 | 87 | 2.0 | 4.0 | 0.00 | 0.04 | 0.04 | 84 | 1014.6 |
| 20260906014158 | 66 | 333 | 2.0 | 6.0 | 0.00 | 0.04 | 0.04 | 85 | 1014.2 |
| 20260906013700 | 66 | 157 | 1.0 | 6.0 | 0.00 | 0.04 | 0.04 | 86 | 1014.1 |
| 20260906013148 | 66 | 83 | 0.0 | 3.0 | 0.00 | 0.04 | 0.04 | 87 | 1014.1 |
| 20260906012645 | 66 | 0 | 0.0 | 2.0 | 0.00 | 0.04 | 0.04 | 87 | 1013.5 |
| 20260906012142 | 66 | 0 | 0.0 | 2.0 | 0.00 | 0.04 | 0.04 | 86 | 1013.5 |
| 20260906011616 | 67 | 84 | 0.0 | 0.0 | 0.00 | 0.04 | 0.04 | 85 | 1013.5 |
| 20260906011410 | 67 | 84 | 0.0 | 0.0 | 0.00 | 0.04 | 0.04 | 85 | 1013.5 |
| 20260906010603 | 67 | 84 | 0.0 | 2.0 | 0.00 | 0.04 | 0.04 | 84 | 1013.5 |
| 20260906010106 | 67 | 84 | 0.0 | 2.0 | 0.00 | 0.04 | 0.04 | 84 | 1013.5 |
| 20260906005901 | 68 | 84 | 0.0 | 0.0 | 0.00 | 0.04 | 0.04 | 83 | 1013.7 |
| 20260906005049 | 68 | 84 | 0.0 | 0.0 | 0.00 | 0.04 | 0.04 | 82 | 1013.7 |
| 20260906004543 | 68 | 84 | 0.0 | 0.0 | 0.00 | 0.04 | 0.04 | 82 | 1013.7 |
| 20260906004344 | 69 | 84 | 0.0 | 0.0 | 0.00 | 0.04 | 0.04 | 81 | 1013.7 |
| 20260906003845 | 69 | 84 | 0.0 | 0.0 | 0.00 | 0.04 | 0.04 | 79 | 1013.8 |
| 20260906003038 | 69 | 84 | 0.0 | 0.0 | 0.00 | 0.04 | 0.04 | 78 | 1013.8 |
| 20260906002535 | 70 | 84 | 0.0 | 0.0 | 0.00 | 0.04 | 0.04 | 77 | 1013.8 |
| 20260906002034 | 71 | 84 | 0.0 | 0.0 | 0.00 | 0.04 | 0.04 | 75 | 1013.9 |
| 20260906001534 | 71 | 84 | 0.0 | 0.0 | 0.00 | 0.04 | 0.04 | 74 | 1013.9 |
| 20260906001018 | 72 | 84 | 0.0 | 0.0 | 0.00 | 0.04 | 0.04 | 73 | 1013.9 |
| 20260906000513 | 73 | 84 | 0.0 | 0.0 | 0.00 | 0.04 | 0.04 | 71 | 1013.9 |
| 20260906000313 | 74 | 84 | 0.0 | 0.0 | 0.00 | 0.04 | 0.04 | 70 | 1014.0 |
| 20260905235458 | 74 | 84 | 0.0 | 0.0 | 0.00 | 0.04 | 0.04 | 68 | 1014.1 |
| 20260905234951 | 75 | 84 | 0.0 | 0.0 | 0.00 | 0.04 | 0.04 | 67 | 1014.1 |
| 20260905234446 | 75 | 84 | 0.0 | 0.0 | 0.00 | 0.04 | 0.04 | 67 | 1014.2 |
| 20260905233941 | 76 | 84 | 0.0 | 1.0 | 0.00 | 0.04 | 0.04 | 65 | 1014.2 |
| 20260905233436 | 76 | 84 | 0.0 | 2.0 | 0.00 | 0.04 | 0.04 | 63 | 1014.2 |
| 20260905232924 | 76 | 81 | 0.0 | 2.0 | 0.00 | 0.04 | 0.04 | 62 | 1014.1 |
| 20260905232733 | 77 | 90 | 1.0 | 3.0 | 0.00 | 0.04 | 0.04 | 62 | 1014.1 |
| 20260905231909 | 77 | 90 | 1.0 | 4.0 | 0.00 | 0.04 | 0.04 | 61 | 1014.1 |
| 20260905231409 | 77 | 95 | 1.0 | 4.0 | 0.00 | 0.04 | 0.04 | 61 | 1014.2 |
| 20260905231221 | 76 | 35 | 1.0 | 2.0 | 0.00 | 0.04 | 0.04 | 62 | 1014.1 |
| 20260905230407 | 76 | 56 | 1.0 | 2.0 | 0.00 | 0.04 | 0.04 | 63 | 1014.1 |
| 20260905225905 | 76 | 51 | 0.0 | 2.0 | 0.00 | 0.04 | 0.04 | 64 | 1014.0 |
| 20260905225402 | 76 | 34 | 0.0 | 2.0 | 0.00 | 0.04 | 0.04 | 65 | 1014.0 |
| 20260905225030 | 76 | 32 | 0.0 | 1.0 | 0.00 | 0.04 | 0.04 | 62 | 1013.5 |
| 20260905224958 | 76 | 32 | 0.0 | 1.0 | 0.00 | 0.04 | 0.04 | 65 | 1014.0 |
| 20260905224202 | 77 | 32 | 0.0 | 2.0 | 0.00 | 0.04 | 0.04 | 61 | 1013.7 |
| 20260905223702 | 77 | 32 | 2.0 | 5.0 | 0.00 | 0.04 | 0.04 | 59 | 1013.7 |
| 20260905222851 | 78 | 78 | 3.0 | 8.0 | 0.00 | 0.04 | 0.04 | 59 | 1013.8 |
| 20260905222714 | 77 | 96 | 2.0 | 8.0 | 0.00 | 0.04 | 0.04 | 61 | 1013.8 |
| 20260905221848 | 77 | 57 | 1.0 | 4.0 | 0.00 | 0.04 | 0.04 | 62 | 1013.8 |
| 20260905221347 | 77 | 70 | 0.0 | 2.0 | 0.00 | 0.04 | 0.04 | 63 | 1013.8 |
| 20260905220846 | 77 | 70 | 1.0 | 4.0 | 0.00 | 0.04 | 0.04 | 60 | 1013.8 |
| 20260905220345 | 77 | 86 | 2.0 | 7.0 | 0.00 | 0.04 | 0.04 | 59 | 1013.8 |
| 20260905220153 | 78 | 48 | 3.0 | 8.0 | 0.00 | 0.04 | 0.04 | 58 | 1013.7 |
| 20260905215513 | 78 | 111 | 1.0 | 6.0 | 0.00 | 0.04 | 0.04 | 60 | 1013.7 |
| 20260905215434 | 78 | 98 | 2.0 | 8.0 | 0.00 | 0.04 | 0.04 | 58 | 1013.7 |
| 20260905214314 | 78 | 24 | 1.0 | 3.0 | 0.00 | 0.04 | 0.04 | 59 | 1013.7 |
| 20260905213815 | 78 | 11 | 2.0 | 5.0 | 0.00 | 0.04 | 0.04 | 57 | 1013.7 |
| 20260905213305 | 78 | 105 | 2.0 | 5.0 | 0.00 | 0.04 | 0.04 | 58 | 1013.7 |
| 20260905212805 | 78 | 40 | 2.0 | 8.0 | 0.00 | 0.04 | 0.04 | 59 | 1013.5 |
| 20260905212306 | 78 | 40 | 2.0 | 8.0 | 0.00 | 0.04 | 0.04 | 61 | 1013.4 |
| 20260905211802 | 77 | 71 | 1.0 | 4.0 | 0.00 | 0.04 | 0.04 | 61 | 1013.4 |
| 20260905211541 | 77 | 112 | 2.0 | 5.0 | 0.00 | 0.04 | 0.04 | 61 | 1013.3 |
| 20260905211119 | 78 | 59 | 3.0 | 10.0 | 0.00 | 0.04 | 0.04 | 60 | 1013.3 |
| 20260905210257 | 78 | 56 | 3.0 | 10.0 | 0.00 | 0.04 | 0.04 | 60 | 1013.3 |
| 20260905205755 | 78 | 98 | 1.0 | 6.0 | 0.00 | 0.04 | 0.04 | 62 | 1013.4 |
| 20260905205254 | 77 | 101 | 1.0 | 4.0 | 0.00 | 0.04 | 0.04 | 61 | 1013.4 |
| 20260905204754 | 78 | 123 | 3.0 | 8.0 | 0.00 | 0.04 | 0.04 | 61 | 1013.4 |
| 20260905204251 | 78 | 51 | 3.0 | 8.0 | 0.00 | 0.04 | 0.04 | 61 | 1013.8 |
| 20260905203749 | 78 | 126 | 2.0 | 8.0 | 0.00 | 0.04 | 0.04 | 61 | 1013.8 |
| 20260905203247 | 78 | 128 | 1.0 | 5.0 | 0.00 | 0.04 | 0.04 | 63 | 1013.7 |
| 20260905203100 | 78 | 111 | 1.0 | 4.0 | 0.00 | 0.04 | 0.04 | 63 | 1013.7 |
| 20260905202241 | 78 | 63 | 2.0 | 6.0 | 0.00 | 0.04 | 0.04 | 63 | 1013.7 |
| 20260905201742 | 78 | 51 | 2.0 | 6.0 | 0.00 | 0.04 | 0.04 | 64 | 1013.7 |
| 20260905201240 | 77 | 78 | 2.0 | 6.0 | 0.00 | 0.04 | 0.04 | 64 | 1013.8 |
| 20260905201053 | 77 | 98 | 2.0 | 6.0 | 0.00 | 0.04 | 0.04 | 63 | 1013.8 |
| 20260905200239 | 77 | 47 | 2.0 | 6.0 | 0.00 | 0.04 | 0.04 | 65 | 1013.8 |
| 20260905195726 | 78 | 70 | 2.0 | 6.0 | 0.00 | 0.04 | 0.04 | 65 | 1013.7 |
| 20260905195227 | 78 | 33 | 3.0 | 7.0 | 0.00 | 0.04 | 0.04 | 63 | 1013.8 |
| 20260905194732 | 78 | 63 | 3.0 | 7.0 | 0.00 | 0.04 | 0.04 | 64 | 1013.7 |
| 20260905194213 | 78 | 87 | 2.0 | 5.0 | 0.00 | 0.04 | 0.04 | 64 | 1014.0 |
| 20260905193710 | 77 | 38 | 2.0 | 5.0 | 0.00 | 0.04 | 0.04 | 66 | 1014.0 |
| 20260905193535 | 77 | 105 | 2.0 | 7.0 | 0.00 | 0.04 | 0.04 | 66 | 1014.0 |
| 20260905192712 | 77 | 92 | 3.0 | 7.0 | 0.00 | 0.04 | 0.04 | 65 | 1014.2 |
| 20260905192209 | 77 | 110 | 4.0 | 9.0 | 0.00 | 0.04 | 0.04 | 66 | 1014.2 |
| 20260905191704 | 77 | 83 | 3.0 | 9.0 | 0.00 | 0.04 | 0.04 | 66 | 1014.2 |
| 20260905191203 | 77 | 117 | 2.0 | 7.0 | 0.00 | 0.04 | 0.04 | 64 | 1014.2 |
| 20260905191030 | 77 | 56 | 3.0 | 7.0 | 0.00 | 0.04 | 0.04 | 66 | 1014.2 |
| 20260905190203 | 77 | 125 | 2.0 | 7.0 | 0.00 | 0.04 | 0.04 | 66 | 1014.2 |
| 20260905185719 | 77 | 81 | 2.0 | 7.0 | 0.00 | 0.04 | 0.04 | 66 | 1014.4 |
| 20260905185206 | 77 | 106 | 2.0 | 7.0 | 0.00 | 0.04 | 0.04 | 65 | 1014.4 |
| 20260905184707 | 77 | 22 | 2.0 | 6.0 | 0.00 | 0.04 | 0.04 | 67 | 1014.4 |
| 20260905184205 | 77 | 126 | 3.0 | 6.0 | 0.00 | 0.04 | 0.04 | 64 | 1014.4 |
| 20260905183702 | 77 | 101 | 2.0 | 4.0 | 0.00 | 0.04 | 0.04 | 65 | 1014.5 |
| 20260905183203 | 77 | 329 | 1.0 | 5.0 | 0.00 | 0.04 | 0.04 | 64 | 1014.5 |
| 20260905182702 | 77 | 24 | 2.0 | 7.0 | 0.00 | 0.04 | 0.04 | 67 | 1014.3 |
| 20260905182202 | 77 | 31 | 3.0 | 7.0 | 0.00 | 0.04 | 0.04 | 64 | 1014.3 |
| 20260905181701 | 77 | 69 | 3.0 | 7.0 | 0.00 | 0.04 | 0.04 | 65 | 1014.3 |
| 20260905181200 | 77 | 115 | 3.0 | 7.0 | 0.00 | 0.04 | 0.04 | 65 | 1014.3 |
| 20260905180658 | 77 | 127 | 3.0 | 8.0 | 0.00 | 0.04 | 0.04 | 67 | 1014.3 |
| 20260905180158 | 78 | 85 | 3.0 | 8.0 | 0.00 | 0.04 | 0.04 | 65 | 1014.3 |
| 20260905175658 | 78 | 61 | 3.0 | 8.0 | 0.00 | 0.04 | 0.04 | 65 | 1014.3 |
| 20260905175155 | 78 | 128 | 3.0 | 11.0 | 0.00 | 0.04 | 0.04 | 65 | 1014.3 |
| 20260905174701 | 77 | 163 | 3.0 | 11.0 | 0.00 | 0.04 | 0.04 | 63 | 1014.3 |
| 20260905174157 | 77 | 61 | 2.0 | 6.0 | 0.00 | 0.04 | 0.04 | 65 | 1014.3 |
| 20260905173651 | 77 | 86 | 3.0 | 7.0 | 0.00 | 0.04 | 0.04 | 66 | 1014.3 |
| 20260905173153 | 78 | 355 | 2.0 | 7.0 | 0.00 | 0.04 | 0.04 | 65 | 1014.3 |
| 20260905173009 | 77 | 347 | 2.0 | 6.0 | 0.00 | 0.04 | 0.04 | 66 | 1014.3 |
| 20260905172149 | 76 | 341 | 4.0 | 11.0 | 0.00 | 0.04 | 0.04 | 68 | 1014.2 |
| 20260905172013 | 76 | 66 | 5.0 | 11.0 | 0.00 | 0.04 | 0.04 | 66 | 1014.2 |
| 20260905171516 | 76 | 113 | 4.0 | 7.0 | 0.00 | 0.04 | 0.04 | 66 | 1014.2 |
| 20260905170639 | 76 | 69 | 4.0 | 7.0 | 0.00 | 0.04 | 0.04 | 67 | 1014.2 |
| 20260905170140 | 76 | 67 | 4.0 | 11.0 | 0.00 | 0.04 | 0.04 | 67 | 1014.2 |
| 20260905170013 | 76 | 120 | 4.0 | 11.0 | 0.00 | 0.04 | 0.04 | 65 | 1014.2 |
| 20260905165134 | 76 | 167 | 4.0 | 10.0 | 0.00 | 0.04 | 0.04 | 68 | 1014.2 |
| 20260905164633 | 76 | 95 | 4.0 | 8.0 | 0.00 | 0.04 | 0.04 | 67 | 1014.2 |
| 20260905164133 | 76 | 123 | 3.0 | 11.0 | 0.00 | 0.04 | 0.04 | 68 | 1014.1 |
| 20260905163629 | 75 | 117 | 3.0 | 12.0 | 0.00 | 0.04 | 0.04 | 72 | 1014.1 |
| 20260905163435 | 74 | 16 | 4.0 | 12.0 | 0.00 | 0.04 | 0.04 | 73 | 1014.0 |
| 20260905162615 | 74 | 114 | 3.0 | 9.0 | 0.00 | 0.04 | 0.04 | 73 | 1014.1 |
| 20260905162115 | 74 | 17 | 3.0 | 10.0 | 0.00 | 0.04 | 0.04 | 75 | 1014.1 |
| 20260905161931 | 74 | 95 | 4.0 | 10.0 | 0.00 | 0.04 | 0.04 | 73 | 1014.1 |
| 20260905161112 | 74 | 151 | 3.0 | 7.0 | 0.00 | 0.04 | 0.04 | 73 | 1014.1 |
| 20260905160612 | 74 | 158 | 3.0 | 8.0 | 0.00 | 0.04 | 0.04 | 73 | 1014.1 |
| 20260905160114 | 74 | 130 | 4.0 | 8.0 | 0.00 | 0.04 | 0.04 | 74 | 1014.1 |
| 20260905155609 | 74 | 109 | 4.0 | 11.0 | 0.00 | 0.04 | 0.04 | 74 | 1014.1 |
| 20260905155423 | 74 | 113 | 3.0 | 11.0 | 0.00 | 0.04 | 0.04 | 75 | 1014.1 |
| 20260905154606 | 74 | 90 | 3.0 | 6.0 | 0.00 | 0.04 | 0.04 | 76 | 1014.1 |
| 20260905154106 | 74 | 78 | 2.0 | 7.0 | 0.00 | 0.04 | 0.04 | 77 | 1014.1 |
| 20260905153603 | 73 | 73 | 4.0 | 8.0 | 0.00 | 0.04 | 0.04 | 77 | 1014.0 |
| 20260905153104 | 73 | 13 | 4.0 | 8.0 | 0.00 | 0.04 | 0.04 | 78 | 1014.0 |
| 20260905152603 | 73 | 90 | 4.0 | 11.0 | 0.00 | 0.04 | 0.04 | 77 | 1013.9 |
| 20260905152424 | 72 | 121 | 3.0 | 11.0 | 0.00 | 0.04 | 0.04 | 78 | 1013.9 |
| 20260905151606 | 72 | 171 | 3.0 | 7.0 | 0.00 | 0.04 | 0.04 | 80 | 1013.8 |
| 20260905151104 | 71 | 50 | 4.0 | 7.0 | 0.00 | 0.04 | 0.04 | 81 | 1013.9 |
| 20260905150605 | 70 | 120 | 4.0 | 7.0 | 0.00 | 0.04 | 0.04 | 82 | 1013.8 |
| 20260905150111 | 70 | 111 | 3.0 | 7.0 | 0.00 | 0.04 | 0.04 | 84 | 1013.8 |
| 20260905145602 | 70 | 71 | 3.0 | 7.0 | 0.00 | 0.04 | 0.04 | 83 | 1013.7 |
| 20260905145102 | 70 | 117 | 3.0 | 7.0 | 0.00 | 0.04 | 0.04 | 84 | 1013.7 |
| 20260905144603 | 69 | 88 | 3.0 | 8.0 | 0.00 | 0.04 | 0.04 | 86 | 1013.7 |
| 20260905144102 | 69 | 45 | 4.0 | 8.0 | 0.00 | 0.04 | 0.04 | 86 | 1013.2 |
| 20260905143602 | 69 | 103 | 3.0 | 7.0 | 0.00 | 0.04 | 0.04 | 87 | 1013.1 |
| 20260905143104 | 68 | 95 | 3.0 | 8.0 | 0.00 | 0.04 | 0.04 | 88 | 1013.1 |
| 20260905142559 | 68 | 130 | 3.0 | 8.0 | 0.00 | 0.05 | 0.04 | 89 | 1013.2 |
| 20260905142056 | 68 | 126 | 3.0 | 6.0 | 0.00 | 0.05 | 0.04 | 89 | 1013.2 |
| 20260905141556 | 67 | 67 | 2.0 | 7.0 | 0.00 | 0.05 | 0.04 | 90 | 1013.2 |
| 20260905141056 | 67 | 73 | 2.0 | 7.0 | 0.00 | 0.05 | 0.04 | 92 | 1013.0 |
| 20260905140906 | 66 | 62 | 2.0 | 5.0 | 0.00 | 0.05 | 0.04 | 93 | 1013.0 |
| 20260905140109 | 66 | 52 | 2.0 | 5.0 | 0.00 | 0.05 | 0.04 | 93 | 1013.0 |
| 20260905135553 | 66 | 93 | 2.0 | 6.0 | 0.00 | 0.05 | 0.04 | 93 | 1013.0 |
| 20260905135409 | 65 | 82 | 3.0 | 6.0 | 0.00 | 0.05 | 0.04 | 93 | 1012.9 |
| 20260905134904 | 65 | 87 | 2.0 | 6.0 | 0.00 | 0.05 | 0.04 | 93 | 1012.9 |
| 20260905134053 | 65 | 134 | 3.0 | 6.0 | 0.00 | 0.05 | 0.04 | 94 | 1012.9 |
| 20260905133545 | 65 | 132 | 3.0 | 6.0 | 0.00 | 0.05 | 0.04 | 94 | 1012.9 |
| 20260905133048 | 65 | 196 | 2.0 | 7.0 | 0.00 | 0.05 | 0.04 | 94 | 1012.9 |
| 20260905132548 | 65 | 114 | 2.0 | 7.0 | 0.00 | 0.05 | 0.04 | 94 | 1012.8 |
| 20260905132045 | 65 | 107 | 2.0 | 7.0 | 0.01 | 0.05 | 0.04 | 94 | 1012.8 |
| 20260905131547 | 65 | 117 | 3.0 | 7.0 | 0.01 | 0.05 | 0.04 | 94 | 1012.8 |
| 20260905131045 | 65 | 101 | 2.0 | 6.0 | 0.01 | 0.05 | 0.04 | 94 | 1012.9 |
| 20260905130547 | 65 | 113 | 1.0 | 5.0 | 0.01 | 0.05 | 0.04 | 95 | 1012.9 |
| 20260905130348 | 65 | 120 | 1.0 | 5.0 | 0.01 | 0.05 | 0.04 | 95 | 1012.9 |
| 20260905125851 | 65 | 74 | 1.0 | 5.0 | 0.02 | 0.05 | 0.04 | 94 | 1012.8 |
| 20260905125349 | 65 | 100 | 1.0 | 5.0 | 0.04 | 0.05 | 0.04 | 95 | 1012.8 |
| 20260905124536 | 65 | 69 | 0.0 | 2.0 | 0.04 | 0.05 | 0.04 | 95 | 1012.8 |
| 20260905124019 | 65 | 32 | 1.0 | 2.0 | 0.04 | 0.05 | 0.04 | 95 | 1012.5 |
| 20260905123514 | 64 | 32 | 1.0 | 2.0 | 0.04 | 0.06 | 0.04 | 94 | 1012.5 |
| 20260905123009 | 64 | 42 | 0.0 | 2.0 | 0.04 | 0.06 | 0.04 | 94 | 1012.4 |
| 20260905122507 | 64 | 82 | 1.0 | 6.0 | 0.04 | 0.06 | 0.04 | 94 | 1012.4 |
| 20260905121949 | 64 | 82 | 1.0 | 6.0 | 0.03 | 0.06 | 0.03 | 94 | 1012.4 |
| 20260905121757 | 64 | 9 | 1.0 | 5.0 | 0.03 | 0.07 | 0.03 | 94 | 1012.4 |
| 20260905120951 | 64 | 72 | 1.0 | 5.0 | 0.03 | 0.07 | 0.03 | 94 | 1012.4 |
| 20260905120451 | 65 | 60 | 1.0 | 4.0 | 0.03 | 0.08 | 0.03 | 94 | 1012.4 |
| 20260905115948 | 65 | 25 | 0.0 | 1.0 | 0.03 | 0.09 | 0.03 | 94 | 1012.4 |
| 20260905115436 | 65 | 32 | 0.0 | 3.0 | 0.02 | 0.10 | 0.02 | 94 | 1012.4 |
| 20260905115107 | 65 | 52 | 1.0 | 5.0 | 0.00 | 0.09 | 0.00 | 93 | 1012.4 |
| 20260905115035 | 65 | 32 | 1.0 | 5.0 | 0.00 | 0.08 | 0.00 | 93 | 1012.4 |
| 20260905114232 | 65 | 100 | 1.0 | 5.0 | 0.00 | 0.10 | 0.00 | 93 | 1012.4 |
| 20260905113735 | 65 | 87 | 1.0 | 6.0 | 0.00 | 0.12 | 0.00 | 93 | 1012.4 |
| 20260905113222 | 65 | 47 | 2.0 | 6.0 | 0.00 | 0.12 | 0.00 | 92 | 1012.4 |
| 20260905112356 | 65 | 110 | 1.0 | 5.0 | 0.00 | 0.14 | 0.00 | 92 | 1012.4 |
| 20260905112213 | 65 | 96 | 1.0 | 5.0 | 0.00 | 0.15 | 0.00 | 92 | 1012.4 |
| 20260905111351 | 65 | 26 | 1.0 | 5.0 | 0.00 | 0.16 | 0.00 | 92 | 1012.3 |
| 20260905110853 | 65 | 5 | 0.0 | 2.0 | 0.00 | 0.16 | 0.00 | 92 | 1012.3 |
| 20260905110344 | 65 | 52 | 1.0 | 6.0 | 0.00 | 0.16 | 0.00 | 92 | 1012.4 |
| 20260905105844 | 65 | 53 | 1.0 | 6.0 | 0.00 | 0.17 | 0.00 | 92 | 1012.1 |
| 20260905105345 | 66 | 62 | 0.0 | 3.0 | 0.00 | 0.18 | 0.00 | 92 | 1012.1 |
| 20260905104846 | 66 | 105 | 0.0 | 2.0 | 0.00 | 0.19 | 0.00 | 92 | 1012.1 |
| 20260905104344 | 66 | 39 | 0.0 | 2.0 | 0.00 | 0.20 | 0.00 | 92 | 1012.1 |
| 20260905103845 | 66 | 39 | 0.0 | 2.0 | 0.00 | 0.21 | 0.00 | 91 | 1012.1 |
| 20260905103330 | 66 | 38 | 0.0 | 1.0 | 0.00 | 0.22 | 0.00 | 91 | 1012.1 |
| 20260905102814 | 66 | 39 | 0.0 | 3.0 | 0.00 | 0.22 | 0.00 | 91 | 1012.1 |
| 20260905102314 | 66 | 90 | 0.0 | 2.0 | 0.00 | 0.23 | 0.00 | 91 | 1012.1 |
| 20260905101816 | 66 | 71 | 1.0 | 5.0 | 0.00 | 0.23 | 0.00 | 91 | 1012.1 |
| 20260905101308 | 66 | 71 | 1.0 | 5.0 | 0.00 | 0.24 | 0.00 | 91 | 1011.9 |
| 20260905100806 | 66 | 56 | 0.0 | 4.0 | 0.00 | 0.24 | 0.00 | 91 | 1011.9 |
| 20260905100258 | 66 | 90 | 1.0 | 5.0 | 0.00 | 0.24 | 0.00 | 91 | 1011.9 |
| 20260905095755 | 66 | 128 | 1.0 | 5.0 | 0.00 | 0.24 | 0.00 | 91 | 1012.2 |
| 20260905095254 | 66 | 111 | 0.0 | 5.0 | 0.00 | 0.24 | 0.00 | 92 | 1012.2 |
| 20260905094754 | 66 | 38 | 0.0 | 1.0 | 0.00 | 0.24 | 0.00 | 92 | 1012.2 |
| 20260905094252 | 66 | 38 | 0.0 | 2.0 | 0.00 | 0.24 | 0.00 | 92 | 1011.9 |
| 20260905094051 | 66 | 38 | 0.0 | 2.0 | 0.00 | 0.24 | 0.00 | 92 | 1011.9 |
| 20260905093533 | 66 | 37 | 0.0 | 0.0 | 0.00 | 0.24 | 0.00 | 92 | 1011.9 |
| 20260905092719 | 66 | 37 | 0.0 | 1.0 | 0.00 | 0.24 | 0.00 | 91 | 1011.8 |
| 20260905092210 | 66 | 37 | 0.0 | 4.0 | 0.00 | 0.24 | 0.00 | 91 | 1011.8 |
| 20260905091707 | 66 | 148 | 1.0 | 4.0 | 0.00 | 0.24 | 0.00 | 91 | 1011.8 |
| 20260905091210 | 66 | 121 | 0.0 | 2.0 | 0.00 | 0.24 | 0.00 | 91 | 1011.7 |
| 20260905090707 | 66 | 91 | 0.0 | 2.0 | 0.00 | 0.24 | 0.00 | 91 | 1011.7 |
| 20260905090210 | 66 | 91 | 0.0 | 2.0 | 0.00 | 0.24 | 0.00 | 91 | 1011.7 |
| 20260905085711 | 66 | 91 | 0.0 | 1.0 | 0.00 | 0.24 | 0.00 | 91 | 1011.8 |
| 20260905085524 | 66 | 90 | 0.0 | 1.0 | 0.00 | 0.24 | 0.00 | 91 | 1011.8 |